Location: Newark
(7.0858°N, 171.3717°E)
Time: 15:01:18
(UTC+00:00)

Courier 1B Rocket - Pass Details

Date: 28 November 2020
Orbit: 920 x 1202 km, 28.2° (Epoch: 20 January)

Event Time Altitude Azimuth Distance (km) Brightness Sun altitude
Rises 15:14:23 0° 242° (WSW) 3,954 - -46.2°
Reaches altitude 10° 15:17:06 10° 243° (WSW) 3,028 - -45.6°
Maximum altitude 15:24:42 83° 330° (NNW) 1,192 - -43.8°
Exits shadow 15:29:52 24° 57° (ENE) 2,252 7.0 -42.6°
Drops below altitude 10° 15:32:34 10° 59° (ENE) 3,126 7.9 -42.0°
Sets 15:35:25 0° 60° (ENE) 4,088 8.6 -41.4°
